DL9LAF-4 Weather Reports


time (UTC)temp
C
wind
direction
speed
KPH
gust
KPH
rain 1hr
cm
rain 24hr
cm
rain mn
cm
humidity
%
barometer
mb
20260902074218 16 22 0.0 0.0 0.00 0.00 0.00 85 994.5
20260902073218 15 0 0.0 0.0 0.00 0.00 0.00 85 994.4
20260902072218 15 315 0.0 0.0 0.00 0.00 0.00 86 994.4
20260902071218 15 22 0.0 0.0 0.00 0.00 0.00 87 994.4
20260902070218 15 22 0.0 0.0 0.00 0.00 0.00 88 994.4
20260902065218 15 45 292.9 0.0 0.00 0.00 0.00 89 994.4
20260902064218 14 0 0.0 0.0 0.00 0.00 0.00 89 994.5
20260902063218 14 22 0.0 0.0 0.00 0.00 0.00 89 994.5
20260902062218 14 22 0.0 0.0 0.00 0.00 0.00 89 994.5
20260902061218 13 22 0.0 0.0 0.00 0.00 0.00 90 994.4
20260902060218 13 0 0.0 0.0 0.00 0.00 0.00 90 994.4
20260902055218 13 22 0.0 0.0 0.00 0.00 0.00 90 994.4
20260902054218 13 22 0.0 0.0 0.00 0.00 0.00 90 994.4
20260902053218 13 22 0.0 0.0 0.00 0.00 0.00 90 994.4
20260902052218 13 22 0.0 0.0 0.00 0.00 0.00 90 994.7
20260902051218 13 0 0.0 0.0 0.00 0.00 0.00 90 994.7
20260902050218 13 22 0.0 0.0 0.00 0.00 0.00 90 994.5
20260902045218 13 45 0.0 0.0 0.00 0.00 0.00 90 994.5
20260902044218 13 22 0.0 0.0 0.00 0.00 0.00 90 994.5
20260902043218 13 22 0.0 0.0 0.00 0.00 0.00 90 994.5
20260902042218 13 22 0.0 0.0 0.00 0.00 0.00 90 994.5
20260902041218 13 45 0.0 0.0 0.00 0.00 0.00 90 994.5
20260902040218 13 0 0.0 0.0 0.00 0.00 0.00 90 994.7
20260902035218 13 22 0.0 0.0 0.00 0.00 0.00 90 994.7
20260902034218 13 315 0.0 0.0 0.00 0.00 0.00 90 994.7
20260902033218 13 22 0.0 0.0 0.00 0.00 0.00 90 994.7
20260902032218 13 22 0.0 0.0 0.00 0.00 0.00 90 994.7
20260902031218 13 0 0.0 0.0 0.00 0.00 0.00 90 994.7
20260902030218 13 22 0.0 0.0 0.00 0.00 0.00 89 994.7
20260902025218 13 337 0.0 0.0 0.00 0.00 0.00 89 994.7
20260902024218 13 315 0.0 0.0 0.00 0.00 0.00 89 994.7
20260902023218 13 315 0.0 0.0 0.00 0.00 0.00 89 994.9
20260902022218 13 337 0.0 0.0 0.00 0.00 0.00 89 995.0
20260902021218 13 315 0.0 0.0 0.00 0.00 0.00 89 994.9
20260902020218 13 22 0.0 0.0 0.00 0.00 0.00 89 995.0
20260902015218 13 22 0.0 0.0 0.00 0.00 0.00 89 994.7
20260902013218 13 0 0.0 0.0 0.00 0.00 0.00 88 994.5
20260902012218 13 315 0.0 0.0 0.00 0.00 0.00 88 994.7
20260902011218 13 315 0.0 0.0 0.00 0.00 0.00 88 994.7
20260902010218 13 292 0.0 0.0 0.00 0.00 0.00 87 994.5
20260902005218 13 292 0.0 0.0 0.00 0.00 0.00 88 994.7
20260902004218 13 315 0.0 0.0 0.00 0.00 0.00 87 994.7
20260902003218 13 292 0.0 0.0 0.00 0.00 0.00 87 994.5
20260902002218 13 315 0.0 0.0 0.00 0.00 0.00 87 994.5
20260902001218 13 315 0.0 0.0 0.00 0.00 0.00 86 994.5
20260902000219 13 0 294.5 0.0 0.00 0.00 0.00 86 994.5
20260901235218 13 315 0.0 0.0 0.00 0.00 0.00 86 994.7
20260901234218 14 315 0.0 0.0 0.00 0.00 0.00 86 994.5
20260901233218 13 292 0.0 0.0 0.00 0.00 0.00 86 994.7
20260901232218 13 315 0.0 0.0 0.00 0.00 0.00 85 994.7
20260901231218 14 292 0.0 0.0 0.00 0.00 0.00 85 995.0
20260901230218 14 292 0.0 0.0 0.00 0.00 0.00 84 995.0
20260901225218 14 292 0.0 0.0 0.00 0.00 0.00 84 995.0
20260901224218 14 292 0.0 0.0 0.00 0.00 0.00 84 995.0
20260901223218 14 292 0.0 0.0 0.00 0.00 0.00 83 995.0
20260901222218 15 292 0.0 0.0 0.00 0.00 0.00 83 995.0
20260901221218 15 292 0.0 0.0 0.00 0.00 0.00 84 995.2
20260901220218 15 292 0.0 0.0 0.00 0.00 0.00 84 995.5
20260901215218 15 315 0.0 0.0 0.00 0.00 0.00 84 995.4
20260901214218 15 292 0.0 0.0 0.00 0.00 0.00 84 995.2
20260901213218 15 292 0.0 0.0 0.00 0.00 0.00 84 995.2
20260901212218 15 292 0.0 0.0 0.00 0.00 0.00 85 995.0
20260901211218 15 0 294.5 0.0 0.00 0.00 0.00 84 995.0
20260901210218 15 292 0.0 0.0 0.00 0.00 0.00 84 995.0
20260901205218 15 292 0.0 0.0 0.00 0.00 0.00 84 995.0
20260901204218 15 292 0.0 0.0 0.00 0.00 0.00 84 995.0
20260901203218 15 292 0.0 0.0 0.00 0.00 0.00 84 995.0
20260901202218 15 292 0.0 0.0 0.00 0.00 0.00 84 995.0
20260901201218 15 315 0.0 0.0 0.00 0.00 0.00 84 995.2
20260901200218 15 292 0.0 0.0 0.00 0.00 0.00 84 995.0
20260901195218 15 292 0.0 0.0 0.00 0.00 0.00 84 995.0
20260901194218 15 292 0.0 0.0 0.00 0.00 0.00 84 995.0
20260901193218 15 292 0.0 0.0 0.00 0.00 0.00 84 995.0
20260901192218 15 292 0.0 0.0 0.00 0.00 0.00 85 995.0
20260901191218 15 292 0.0 0.0 0.00 0.00 0.00 85 994.7
20260901190218 15 292 0.0 0.0 0.00 0.00 0.00 85 994.7
20260901185218 15 315 0.0 0.0 0.00 0.00 0.00 86 994.7
20260901184218 15 292 0.0 0.0 0.00 0.00 0.00 85 994.5
20260901183218 15 292 0.0 0.0 0.00 0.00 0.00 84 994.7
20260901182218 15 292 0.0 0.0 0.00 0.00 0.00 83 994.7
20260901181218 16 292 0.0 0.0 0.00 0.00 0.00 81 994.5
20260901180218 16 292 0.0 0.0 0.00 0.00 0.00 81 994.2
20260901175218 16 292 0.0 0.0 0.00 0.00 0.00 81 994.2
20260901174218 16 292 0.0 0.0 0.00 0.00 0.00 80 994.0
20260901173218 16 292 0.0 0.0 0.00 0.00 0.00 80 994.0
20260901172218 17 292 0.0 0.0 0.00 0.00 0.00 78 993.9
20260901171218 17 292 0.0 0.0 0.00 0.00 0.00 78 993.9
20260901170218 17 292 0.0 0.0 0.00 0.00 0.00 76 993.9
20260901165218 18 292 0.0 0.0 0.00 0.00 0.00 76 994.0
20260901164218 18 315 0.0 0.0 0.00 0.00 0.00 76 994.0
20260901163218 18 292 0.0 0.0 0.00 0.00 0.00 75 994.0
20260901162218 17 292 0.0 0.0 0.00 0.00 0.00 74 994.0
20260901161218 18 292 0.0 0.0 0.00 0.00 0.00 73 994.0
20260901160218 18 292 0.0 0.0 0.00 0.00 0.00 70 993.7
20260901155218 18 292 0.0 0.0 0.00 0.00 0.00 69 993.7
20260901154218 19 292 0.0 0.0 0.00 0.00 0.00 68 993.5
20260901153218 20 315 0.0 0.0 0.00 0.00 0.00 68 993.5
20260901152218 20 292 0.0 0.0 0.00 0.00 0.00 67 993.5
20260901151218 20 292 0.0 0.0 0.00 0.00 0.00 66 993.5
20260901150218 20 292 0.0 0.0 0.00 0.00 0.00 67 993.4
20260901145218 20 292 0.0 0.0 0.00 0.00 0.00 67 993.4
20260901144218 20 292 0.0 0.0 0.00 0.00 0.00 67 993.4
20260901143218 20 292 0.0 0.0 0.00 0.00 0.00 68 993.4
20260901142218 20 292 0.0 0.0 0.00 0.00 0.00 68 993.4
20260901141218 20 292 0.0 0.0 0.00 0.00 0.00 69 993.2
20260901140218 20 292 0.0 0.0 0.00 0.00 0.00 72 993.4
20260901135218 20 292 0.0 0.0 0.00 0.00 0.00 77 993.2
20260901134218 20 292 0.0 0.0 0.00 0.00 0.00 77 993.2
20260901133218 18 292 0.0 0.0 0.00 0.00 0.00 78 993.2
20260901132218 18 292 0.0 0.0 0.00 0.00 0.00 77 993.2
20260901131218 18 292 0.0 0.0 0.00 0.00 0.00 78 993.2
20260901130218 18 292 0.0 0.0 0.00 0.00 0.00 77 993.2
20260901125218 18 292 0.0 0.0 0.00 0.00 0.00 77 993.2
20260901124218 18 292 0.0 0.0 0.00 0.00 0.00 78 993.2
20260901123218 18 292 0.0 0.0 0.00 0.00 0.00 78 993.0
20260901122218 18 315 0.0 0.0 0.00 0.00 0.00 78 993.2
20260901121218 18 292 0.0 0.0 0.00 0.00 0.00 79 993.2
20260901120218 19 292 0.0 0.0 0.00 0.00 0.00 78 993.0
20260901115218 19 337 0.0 0.0 0.00 0.00 0.00 80 992.7
20260901114218 18 292 0.0 0.0 0.00 0.00 0.00 78 992.7
20260901113218 19 292 0.0 0.0 0.00 0.00 0.00 79 992.7
20260901112218 19 292 0.0 0.0 0.00 0.00 0.00 80 992.7
20260901111218 18 315 0.0 0.0 0.00 0.00 0.00 81 992.5
20260901110218 18 292 0.0 0.0 0.00 0.00 0.00 82 992.5
20260901105218 18 292 0.0 0.0 0.00 0.00 0.00 83 992.4
20260901104218 18 292 0.0 0.0 0.00 0.00 0.00 83 992.5
20260901103218 18 292 0.0 0.0 0.00 0.00 0.00 83 992.5
20260901102218 17 292 0.0 0.0 0.00 0.00 0.00 81 992.5
20260901101218 18 292 0.0 0.0 0.00 0.00 0.00 81 992.4
20260901100218 18 315 0.0 0.0 0.00 0.00 0.00 80 992.0
20260901095218 18 315 0.0 0.0 0.00 0.00 0.00 80 992.0
20260901094218 19 292 0.0 0.0 0.00 0.00 0.00 80 992.0
20260901093218 19 292 0.0 0.0 0.00 0.00 0.00 81 992.0
20260901092218 19 292 0.0 0.0 0.00 0.00 0.00 81 992.0
20260901091218 20 292 0.0 0.0 0.00 0.00 0.00 81 991.9
20260901090218 19 292 0.0 0.0 0.00 0.00 0.00 82 991.9
20260901085218 19 337 0.0 0.0 0.00 0.00 0.00 82 991.7
20260901084218 18 292 0.0 0.0 0.00 0.00 0.00 83 991.7
20260901083218 18 292 0.0 0.0 0.00 0.00 0.00 83 991.5
20260901082218 18 292 0.0 0.0 0.00 0.00 0.00 84 991.4
20260901081218 18 292 0.0 0.0 0.00 0.00 0.00 85 991.4
20260901080218 18 292 0.0 0.0 0.00 0.00 0.00 85 991.2
20260901075218 17 292 0.0 0.0 0.00 0.00 0.00 85 991.2